Time,TemperatureF,DewpointF,PressureIn,WindDirection,WindDirectionDegrees,WindSpeedMPH,WindSpeedGustMPH,Humidity,HourlyPrecipIn,Conditions,Clouds,dailyrainin,SolarRadiationWatts/m^2,SoftwareType,DateUTC
2013-08-24 00:22:00,41.0,41.0,-100.00,SSW,211,0.0,2.0,99,0.00,,,0.86,0.000000,,2013-08-24 08:22:00,
2013-08-24 00:32:00,41.0,41.0,-100.00,SSW,211,0.0,2.0,99,0.00,,,0.86,0.000000,,2013-08-24 08:32:00,
2013-08-24 00:42:00,41.0,41.0,-100.00,SSW,211,0.0,2.0,99,0.00,,,0.86,0.000000,,2013-08-24 08:42:00,
2013-08-24 00:52:00,41.0,41.0,-100.00,SSW,211,0.0,2.0,99,0.00,,,0.86,0.000000,,2013-08-24 08:52:00,
2013-08-24 01:22:00,40.0,40.0,-100.00,SSW,207,0.0,1.0,99,0.00,,,0.86,0.000000,,2013-08-24 09:22:00,
2013-08-24 01:33:00,40.0,40.0,-100.00,SSW,207,0.0,1.0,99,0.00,,,0.86,0.000000,,2013-08-24 09:33:00,
2013-08-24 01:44:00,40.0,40.0,-100.00,SSW,207,0.0,1.0,99,0.00,,,0.86,0.000000,,2013-08-24 09:44:00,
2013-08-24 01:53:00,40.0,40.0,-100.00,SSW,207,0.0,1.0,99,0.00,,,0.86,0.000000,,2013-08-24 09:53:00,
2013-08-24 02:23:00,40.0,40.0,-100.00,SW,214,0.0,2.0,99,0.00,,,0.84,0.000000,,2013-08-24 10:23:00,
2013-08-24 02:32:00,40.0,40.0,-100.00,SW,214,0.0,2.0,99,0.00,,,0.84,0.000000,,2013-08-24 10:32:00,
2013-08-24 02:42:00,40.0,40.0,-100.00,SW,214,0.0,2.0,99,0.00,,,0.84,0.000000,,2013-08-24 10:42:00,
2013-08-24 02:52:00,40.0,40.0,-100.00,SW,214,0.0,2.0,99,0.00,,,0.84,0.000000,,2013-08-24 10:52:00,
2013-08-24 03:22:00,39.0,39.0,-100.00,South,179,0.0,2.0,99,0.00,,,0.82,0.000000,,2013-08-24 11:22:00,
2013-08-24 03:33:00,39.0,39.0,-100.00,South,179,0.0,2.0,99,0.00,,,0.82,0.000000,,2013-08-24 11:33:00,
2013-08-24 03:42:00,39.0,39.0,-100.00,South,179,0.0,2.0,99,0.00,,,0.82,0.000000,,2013-08-24 11:42:00,
2013-08-24 03:52:00,39.0,39.0,-100.00,South,179,0.0,2.0,99,0.00,,,0.82,0.000000,,2013-08-24 11:52:00,
2013-08-24 04:21:00,38.0,38.0,-100.00,SSW,213,0.0,1.0,99,0.00,,,0.79,0.000000,,2013-08-24 12:21:00,
2013-08-24 04:32:00,38.0,38.0,-100.00,SSW,213,0.0,1.0,99,0.00,,,0.79,0.000000,,2013-08-24 12:32:00,
2013-08-24 04:42:00,38.0,38.0,-100.00,SSW,213,0.0,1.0,99,0.00,,,0.79,0.000000,,2013-08-24 12:42:00,
2013-08-24 04:52:00,38.0,38.0,-100.00,SSW,213,0.0,1.0,99,0.00,,,0.79,0.000000,,2013-08-24 12:52:00,
2013-08-24 05:22:00,37.0,37.0,-100.00,SSW,213,0.0,0.0,99,0.00,,,0.75,0.000000,,2013-08-24 13:22:00,
2013-08-24 05:32:00,37.0,37.0,-100.00,SSW,213,0.0,0.0,99,0.00,,,0.75,0.000000,,2013-08-24 13:32:00,
2013-08-24 05:42:00,37.0,37.0,-100.00,SSW,213,0.0,0.0,99,0.00,,,0.75,0.000000,,2013-08-24 13:42:00,
2013-08-24 05:52:00,37.0,37.0,-100.00,SSW,213,0.0,0.0,99,0.00,,,0.75,0.000000,,2013-08-24 13:52:00,
2013-08-24 06:22:00,38.0,38.0,-100.00,SSW,213,0.0,1.0,99,0.00,,,0.69,0.000000,,2013-08-24 14:22:00,
2013-08-24 06:32:00,38.0,38.0,-100.00,SSW,213,0.0,1.0,99,0.00,,,0.69,0.000000,,2013-08-24 14:32:00,
2013-08-24 06:42:00,38.0,38.0,-100.00,SSW,213,0.0,1.0,99,0.00,,,0.69,0.000000,,2013-08-24 14:42:00,
2013-08-24 06:52:00,38.0,38.0,-100.00,SSW,213,0.0,1.0,99,0.00,,,0.69,0.000000,,2013-08-24 14:52:00,
2013-08-24 07:22:00,41.0,41.0,-100.00,SSW,213,0.0,0.0,100,0.00,,,0.61,11.000000,,2013-08-24 15:22:00,
2013-08-24 07:34:00,41.0,41.0,-100.00,SSW,213,0.0,0.0,100,0.00,,,0.61,11.000000,,2013-08-24 15:34:00,
2013-08-24 07:45:00,41.0,41.0,-100.00,SSW,213,0.0,0.0,100,0.00,,,0.61,11.000000,,2013-08-24 15:45:00,
2013-08-24 07:54:00,41.0,41.0,-100.00,SSW,213,0.0,0.0,100,0.00,,,0.61,11.000000,,2013-08-24 15:54:00,
2013-08-24 08:23:00,44.0,44.0,-100.00,ENE,69,0.0,2.0,100,0.00,,,0.56,51.000000,,2013-08-24 16:23:00,
2013-08-24 08:33:00,44.0,44.0,-100.00,ENE,69,0.0,2.0,100,0.00,,,0.56,51.000000,,2013-08-24 16:33:00,
2013-08-24 08:42:00,44.0,44.0,-100.00,ENE,69,0.0,2.0,100,0.00,,,0.56,51.000000,,2013-08-24 16:42:00,
2013-08-24 08:53:00,44.0,44.0,-100.00,ENE,69,0.0,2.0,100,0.00,,,0.56,51.000000,,2013-08-24 16:53:00,
2013-08-24 09:23:00,48.0,48.0,-100.00,NE,55,1.0,3.0,99,0.00,,,0.55,145.000000,,2013-08-24 17:23:00,
2013-08-24 09:34:00,48.0,48.0,-100.00,NE,55,1.0,3.0,99,0.00,,,0.55,145.000000,,2013-08-24 17:34:00,
2013-08-24 09:42:00,48.0,48.0,-100.00,NE,55,1.0,3.0,99,0.00,,,0.55,145.000000,,2013-08-24 17:42:00,
2013-08-24 09:52:00,48.0,48.0,-100.00,NE,55,1.0,3.0,99,0.00,,,0.55,145.000000,,2013-08-24 17:52:00,
2013-08-24 10:22:00,48.0,47.0,-100.00,NNE,16,0.0,4.0,96,0.00,,,0.49,82.000000,,2013-08-24 18:22:00,
2013-08-24 10:32:00,48.0,47.0,-100.00,NNE,16,0.0,4.0,96,0.00,,,0.49,82.000000,,2013-08-24 18:32:00,
2013-08-24 10:42:00,48.0,47.0,-100.00,NNE,16,0.0,4.0,96,0.00,,,0.49,82.000000,,2013-08-24 18:42:00,
2013-08-24 10:53:00,48.0,47.0,-100.00,NNE,16,0.0,4.0,96,0.00,,,0.49,82.000000,,2013-08-24 18:53:00,
2013-08-24 11:21:00,52.0,48.0,-100.00,NW,318,1.0,4.0,86,0.00,,,0.36,224.000000,,2013-08-24 19:21:00,
2013-08-24 11:32:00,52.0,48.0,-100.00,NW,318,1.0,4.0,86,0.00,,,0.36,224.000000,,2013-08-24 19:32:00,
2013-08-24 11:42:00,52.0,48.0,-100.00,NW,318,1.0,4.0,86,0.00,,,0.36,224.000000,,2013-08-24 19:42:00,
2013-08-24 11:52:00,52.0,48.0,-100.00,NW,318,1.0,4.0,86,0.00,,,0.36,224.000000,,2013-08-24 19:52:00,
2013-08-24 12:22:00,54.0,47.0,-100.00,WSW,248,0.0,9.0,78,0.00,,,0.22,416.000000,,2013-08-24 20:22:00,
2013-08-24 12:32:00,54.0,47.0,-100.00,WSW,248,0.0,9.0,78,0.00,,,0.22,416.000000,,2013-08-24 20:32:00,
2013-08-24 12:42:00,54.0,47.0,-100.00,WSW,248,0.0,9.0,78,0.00,,,0.22,416.000000,,2013-08-24 20:42:00,
2013-08-24 12:52:00,54.0,47.0,-100.00,WSW,248,0.0,9.0,78,0.00,,,0.22,416.000000,,2013-08-24 20:52:00,
2013-08-24 13:22:00,55.0,47.0,-100.00,NNW,335,2.0,6.0,74,0.00,,,0.05,322.000000,,2013-08-24 21:22:00,
2013-08-24 13:34:00,55.0,47.0,-100.00,NNW,335,2.0,6.0,74,0.00,,,0.05,322.000000,,2013-08-24 21:34:00,
2013-08-24 13:43:00,55.0,47.0,-100.00,NNW,335,2.0,6.0,74,0.00,,,0.05,322.000000,,2013-08-24 21:43:00,
2013-08-24 13:54:00,55.0,47.0,-100.00,NNW,335,2.0,6.0,74,0.00,,,0.05,322.000000,,2013-08-24 21:54:00,
2013-08-24 14:23:00,60.0,47.0,-100.00,WSW,248,3.0,8.0,62,0.00,,,0.00,638.000000,,2013-08-24 22:23:00,
2013-08-24 14:33:00,60.0,47.0,-100.00,WSW,248,3.0,8.0,62,0.00,,,0.00,638.000000,,2013-08-24 22:33:00,
2013-08-24 14:42:00,60.0,47.0,-100.00,WSW,248,3.0,8.0,62,0.00,,,0.00,638.000000,,2013-08-24 22:42:00,
2013-08-24 14:53:00,60.0,47.0,-100.00,WSW,248,3.0,8.0,62,0.00,,,0.00,638.000000,,2013-08-24 22:53:00,
2013-08-24 15:22:00,59.0,46.0,-100.00,WSW,256,3.0,7.0,63,0.00,,,0.00,363.000000,,2013-08-24 23:22:00,
2013-08-24 15:34:00,59.0,46.0,-100.00,WSW,256,3.0,7.0,63,0.00,,,0.00,363.000000,,2013-08-24 23:34:00,
2013-08-24 15:42:00,59.0,46.0,-100.00,WSW,256,3.0,7.0,63,0.00,,,0.00,363.000000,,2013-08-24 23:42:00,
2013-08-24 15:53:00,59.0,46.0,-100.00,WSW,256,3.0,7.0,63,0.00,,,0.00,363.000000,,2013-08-24 23:53:00,
2013-08-24 16:22:00,63.0,48.0,-100.00,South,180,1.0,6.0,57,0.00,,,0.00,414.000000,,2013-08-25 00:22:00,
2013-08-24 16:32:00,63.0,48.0,-100.00,South,180,1.0,6.0,57,0.00,,,0.00,414.000000,,2013-08-25 00:32:00,
2013-08-24 16:42:00,63.0,48.0,-100.00,South,180,1.0,6.0,57,0.00,,,0.00,414.000000,,2013-08-25 00:42:00,
2013-08-24 16:52:00,63.0,48.0,-100.00,South,180,1.0,6.0,57,0.00,,,0.00,414.000000,,2013-08-25 00:52:00,
2013-08-24 17:22:00,63.0,45.0,-100.00,West,276,3.0,9.0,52,0.00,,,0.00,477.000000,,2013-08-25 01:22:00,
2013-08-24 17:32:00,63.0,45.0,-100.00,West,276,3.0,9.0,52,0.00,,,0.00,477.000000,,2013-08-25 01:32:00,
2013-08-24 17:42:00,63.0,45.0,-100.00,West,276,3.0,9.0,52,0.00,,,0.00,477.000000,,2013-08-25 01:42:00,
2013-08-24 17:52:00,63.0,45.0,-100.00,West,276,3.0,9.0,52,0.00,,,0.00,477.000000,,2013-08-25 01:52:00,
2013-08-24 18:22:00,61.0,47.0,-100.00,WNW,282,3.0,9.0,60,0.00,,,0.00,216.000000,,2013-08-25 02:22:00,
2013-08-24 18:33:00,61.0,47.0,-100.00,WNW,282,3.0,9.0,60,0.00,,,0.00,216.000000,,2013-08-25 02:33:00,
2013-08-24 18:42:00,61.0,47.0,-100.00,WNW,282,3.0,9.0,60,0.00,,,0.00,216.000000,,2013-08-25 02:42:00,
2013-08-24 18:52:00,61.0,47.0,-100.00,WNW,282,3.0,9.0,60,0.00,,,0.00,216.000000,,2013-08-25 02:52:00,
2013-08-24 19:23:00,60.0,43.0,-100.00,North,349,3.0,11.0,53,0.00,,,0.00,181.000000,,2013-08-25 03:23:00,
2013-08-24 19:34:00,60.0,43.0,-100.00,North,349,3.0,11.0,53,0.00,,,0.00,181.000000,,2013-08-25 03:34:00,
2013-08-24 19:44:00,60.0,43.0,-100.00,North,349,3.0,11.0,53,0.00,,,0.00,181.000000,,2013-08-25 03:44:00,
2013-08-24 19:54:00,60.0,43.0,-100.00,North,349,3.0,11.0,53,0.00,,,0.00,181.000000,,2013-08-25 03:54:00,
2013-08-24 20:25:00,59.0,35.0,-100.00,NNE,18,5.0,16.0,41,0.00,,,0.00,125.000000,,2013-08-25 04:25:00,
2013-08-24 20:33:00,59.0,35.0,-100.00,NNE,18,5.0,16.0,41,0.00,,,0.00,125.000000,,2013-08-25 04:33:00,
2013-08-24 20:43:00,59.0,35.0,-100.00,NNE,18,5.0,16.0,41,0.00,,,0.00,125.000000,,2013-08-25 04:43:00,
2013-08-24 20:54:00,59.0,35.0,-100.00,NNE,18,5.0,16.0,41,0.00,,,0.00,125.000000,,2013-08-25 04:54:00,
2013-08-24 21:22:00,56.0,33.0,-100.00,NNE,26,8.0,15.0,42,0.00,,,0.00,24.000000,,2013-08-25 05:22:00,
2013-08-24 21:34:00,56.0,33.0,-100.00,NNE,26,8.0,15.0,42,0.00,,,0.00,24.000000,,2013-08-25 05:34:00,
2013-08-24 21:42:00,56.0,33.0,-100.00,NNE,26,8.0,15.0,42,0.00,,,0.00,24.000000,,2013-08-25 05:42:00,
2013-08-24 21:52:00,56.0,33.0,-100.00,NNE,26,8.0,15.0,42,0.00,,,0.00,24.000000,,2013-08-25 05:52:00,
2013-08-24 22:22:00,55.0,34.0,-100.00,NNE,28,7.0,20.0,45,0.00,,,0.00,1.000000,,2013-08-25 06:22:00,
2013-08-24 22:32:00,55.0,34.0,-100.00,NNE,28,7.0,20.0,45,0.00,,,0.00,1.000000,,2013-08-25 06:32:00,
2013-08-24 22:43:00,55.0,34.0,-100.00,NNE,28,7.0,20.0,45,0.00,,,0.00,1.000000,,2013-08-25 06:43:00,
2013-08-24 22:52:00,55.0,34.0,-100.00,NNE,28,7.0,20.0,45,0.00,,,0.00,1.000000,,2013-08-25 06:52:00,
2013-08-24 23:22:00,55.0,34.0,-100.00,NNE,27,8.0,21.0,45,0.00,,,0.00,0.000000,,2013-08-25 07:22:00,
2013-08-24 23:32:00,55.0,34.0,-100.00,NNE,27,8.0,21.0,45,0.00,,,0.00,0.000000,,2013-08-25 07:32:00,
2013-08-24 23:42:00,55.0,34.0,-100.00,NNE,27,8.0,21.0,45,0.00,,,0.00,0.000000,,2013-08-25 07:42:00,
2013-08-24 23:52:00,55.0,34.0,-100.00,NNE,27,8.0,21.0,45,0.00,,,0.00,0.000000,,2013-08-25 07:52:00,